Weather in Novobelokatay

Russia / Republic of Bashkortostan     55°42′27″N   58°57′33″E
temp.,
°C
wind,
m/s
gust,
m/s
humid.,
%
clouds,
%
prec.,
mm/h
press.,
hPa
HPBL,
m
1 march, mon
mon123:00−15ene599396 0.4 1010240
02:00−17e369489 0.0 1012156
05:00−17ene359694 0.3 1013140
08:00−17e3596100 0.3 1015150
11:00−14e239293 0.4 1016235
14:00−10ese018699 0.1 1016430
17:00−10w128999 0.2 1016323
20:00−14wsw1197100 0.1 101620
2 march, tue
tue223:00−15sw369797 0.2 1017155
02:00−17wsw3797100 0.1 1016196
05:00−18sw41097100 0.2 1015291
08:00−20sw399896 0.1 1013231
11:00−16sw5109193 0.1 1011420
14:00−11sw61188100 0.0 1007528
17:00−9sw61294100 0.4 1005691
20:00−11sw71394100 1.0 1003656
3 march, wed
wed323:00−13sw61395100 1.8 1003588
02:00−12ssw51293100 0.6 1000509
05:00−10ssw51393100 0.9 999498
08:00−7sw61494100 0.9 997561
11:00−4wsw71191100 1.3 997788
14:00−3wsw71085100 0.1 9971058
17:00−3wsw61094100 0.4 998840
20:00−6wsw51094100 0.6 998445
4 march, thu
thu423:00−7wsw51095100 1.0 1000418
02:00−9sw5119595 0.3 999360
05:00−9wsw6119597 0.9 1000451
08:00−10w51095100 0.6 1000385
11:00−10w5993100 0.8 1002501
14:00−8w6987100 0.3 10021057
17:00−8wsw61086100 0.4 10021036
20:00−10sw6139199 0.1 1003595
5 march, fri
fri523:00−10sw5139289 0.1 1003532
02:00−8ssw71588100 0.1 1000756
05:00−7sw81789100 0.3 997887
08:00−4sw101890100 0.2 9941098
11:00−2sw111894100 1.2 9921408
14:00−3w112072100 2.2 9941598
17:00−7w10158486 2.3 10001175
20:00−9wsw71491100 0.1 1005797